Tracking 31027 objects as of 19-Jul-2025
HD Live streaming from Space Station
objects crossing your sky now

THORAD DELTA 1 DEB

Track THORAD DELTA 1 DEB now!
10-day predictions


NORAD ID: 42592
Int'l Code: 1974-089CW
Perigee: 1,445.2 km
Apogee: 1,495.8 km
Inclination: 101.8 °
Period: 115.2 minutes
Semi major axis: 7841 km
RCS: Unknown
Launch date: November 15, 1974
Source: United States (US)
Launch site: AIR FORCE WESTERN TEST RANGE (AFWTR)

Note: This is SATELLITE DEBRIS
Your satellite tracking list
STARLINK-2062
Track 1 satellite(s)




NASA's NSSDC Master Catalog

Two Line Element Set (TLE):
1 42592U 74089CW  25199.08270865  .00000013  00000-0  37585-3 0  9997
2 42592 101.8175 147.8524 0032291 157.5547 202.6943 12.50275670490980
Source of the keplerian elements: AFSPC